INSAT-4A

Last updated on Fri Jan 10 2020 04:40:13 GMT+0000 (Coordinated Universal Time)

1 28911U 05049A 20009.86120969 -.00000268 00000-0 00000-0 0 9998 2 28911 0.4936 102.3736 0001866 178.1420 268.4608 0.99200279 22119

Satellite not in orbit

INSAT-4A